When you browse on this site, cookies collect data to enhance your experience and personalize the content and advertising you see.
Visit our Privacy Policy to learn more. By continuing to use the site, you agree to this use of cookies and data.
EN

Hourly Weather Novo-Troickoe

Today, 3 August, Monday

Time Temperature Precipitation Wind Pressure Humidity
00:00 +11°C° 0 mm 1 mps 742 mmHg 91%
01:00 +11°C° 0 mm 1 mps 742 mmHg 92%
02:00 +10°C° 0 mm 1 mps 742 mmHg 93%
03:00 +10°C° 0 mm 1 mps 742 mmHg 92%
04:00 +11°C° 0 mm 1 mps 742 mmHg 92%
05:00 +11°C° 0 mm 1 mps 742 mmHg 92%
06:00 +13°C° 0 mm 1 mps 743 mmHg 86%
07:00 +15°C° 0 mm 2 mps 743 mmHg 80%
08:00 +17°C° 0 mm 2 mps 743 mmHg 74%
09:00 +18°C° 0 mm 2 mps 743 mmHg 70%
10:00 +19°C° 0 mm 3 mps 743 mmHg 66%
11:00 +20°C° 0 mm 3 mps 743 mmHg 61%
12:00 +20°C° 0 mm 3 mps 743 mmHg 61%
13:00 +21°C° 0 mm 4 mps 743 mmHg 61%
14:00 +21°C° 0 mm 4 mps 742 mmHg 61%
15:00 +21°C° 0 mm 3 mps 742 mmHg 65%
16:00 +21°C° 0 mm 3 mps 742 mmHg 68%
17:00 +21°C° 0 mm 3 mps 743 mmHg 71%
18:00 +19°C° 0 mm 3 mps 743 mmHg 77%
19:00 +17°C° 0 mm 2 mps 743 mmHg 82%
20:00 +16°C° 0 mm 2 mps 743 mmHg 88%
21:00 +15°C° 0 mm 2 mps 743 mmHg 90%
22:00 +15°C° 0 mm 2 mps 743 mmHg 92%
23:00 +14°C° 0 mm 2 mps 743 mmHg 93%

Tomorrow, 4 August, Tuesday

Time Temperature Precipitation Wind Pressure Humidity
00:00 +14°C° 0 mm 2 mps 743 mmHg 94%
01:00 +14°C° 0 mm 2 mps 744 mmHg 95%
02:00 +13°C° 0 mm 2 mps 744 mmHg 95%
03:00 +13°C° 0 mm 2 mps 744 mmHg 95%
04:00 +13°C° 0 mm 2 mps 744 mmHg 95%
05:00 +13°C° 0 mm 2 mps 744 mmHg 95%
06:00 +15°C° 0 mm 2 mps 744 mmHg 90%
07:00 +17°C° 0 mm 3 mps 744 mmHg 86%
08:00 +18°C° 0 mm 3 mps 745 mmHg 81%
09:00 +20°C° 0 mm 3 mps 745 mmHg 75%
10:00 +21°C° 0 mm 3 mps 745 mmHg 70%
11:00 +22°C° 0 mm 3 mps 745 mmHg 65%
12:00 +24°C° 0 mm 3 mps 745 mmHg 64%
13:00 +23°C° 0 mm 4 mps 745 mmHg 62%
14:00 +25°C° 0 mm 4 mps 745 mmHg 60%
15:00 +24°C° 0 mm 3 mps 745 mmHg 64%
16:00 +24°C° 0 mm 3 mps 744 mmHg 67%
17:00 +24°C° 0 mm 3 mps 744 mmHg 71%
18:00 +21°C° 0 mm 3 mps 744 mmHg 76%
19:00 +19°C° 0 mm 2 mps 744 mmHg 81%
20:00 +17°C° 0 mm 2 mps 744 mmHg 87%
21:00 +17°C° 0 mm 2 mps 745 mmHg 89%
22:00 +16°C° 0 mm 3 mps 745 mmHg 91%
23:00 +14°C° 0 mm 3 mps 745 mmHg 94%

Day after tomorrow, 5 August, Wednesday

Time Temperature Precipitation Wind Pressure Humidity
00:00 +14°C° 0 mm 3 mps 745 mmHg 94%
01:00 +14°C° 0 mm 3 mps 745 mmHg 94%
02:00 +14°C° 0 mm 3 mps 745 mmHg 94%
03:00 +14°C° 0 mm 3 mps 745 mmHg 93%
04:00 +14°C° 0 mm 3 mps 745 mmHg 92%
05:00 +14°C° 0 mm 3 mps 745 mmHg 91%
06:00 +16°C° 0 mm 3 mps 745 mmHg 86%
07:00 +18°C° 0 mm 3 mps 746 mmHg 81%
08:00 +20°C° 0 mm 3 mps 746 mmHg 76%
09:00 +21°C° 0 mm 3 mps 746 mmHg 72%
10:00 +23°C° 0 mm 4 mps 746 mmHg 67%
11:00 +25°C° 0 mm 4 mps 746 mmHg 62%
12:00 +26°C° 0 mm 4 mps 746 mmHg 61%
13:00 +26°C° 0 mm 3 mps 746 mmHg 60%
14:00 +27°C° 0 mm 3 mps 746 mmHg 58%
15:00 +26°C° 0 mm 3 mps 746 mmHg 62%
16:00 +26°C° 0 mm 2 mps 746 mmHg 66%
17:00 +26°C° 0 mm 2 mps 746 mmHg 70%
18:00 +24°C° 0 mm 2 mps 746 mmHg 75%
19:00 +21°C° 0 mm 2 mps 747 mmHg 79%
20:00 +19°C° 0 mm 2 mps 747 mmHg 84%
21:00 +19°C° 0 mm 2 mps 747 mmHg 86%
22:00 +18°C° 0 mm 2 mps 747 mmHg 88%
23:00 +19°C° 0 mm 1 mps 747 mmHg 90%

6 August, Thursday

Time Temperature Precipitation Wind Pressure Humidity
00:00 +18°C° 0 mm 1 mps 747 mmHg 91%
01:00 +18°C° 0 mm 1 mps 747 mmHg 92%
02:00 +18°C° 0 mm 1 mps 747 mmHg 93%
03:00 +18°C° 0 mm 1 mps 747 mmHg 92%
04:00 +18°C° 0 mm 1 mps 747 mmHg 92%
05:00 +18°C° 0 mm 1 mps 747 mmHg 92%
06:00 +20°C° 0 mm 1 mps 748 mmHg 87%
07:00 +21°C° 0 mm 1 mps 748 mmHg 83%
08:00 +23°C° 0 mm 1 mps 748 mmHg 78%
09:00 +24°C° 0 mm 1 mps 748 mmHg 76%
10:00 +24°C° 0 mm 1 mps 748 mmHg 73%
11:00 +25°C° 0 mm 1 mps 748 mmHg 70%
12:00 +25°C° 1.1 mm 2 mps 748 mmHg 75%
13:00 +25°C° 1.1 mm 2 mps 748 mmHg 79%
14:00 +25°C° 1.1 mm 3 mps 748 mmHg 84%
15:00 +24°C° 0.8 mm 3 mps 748 mmHg 85%
16:00 +24°C° 0.8 mm 3 mps 748 mmHg 86%
17:00 +22°C° 0.8 mm 3 mps 748 mmHg 87%
18:00 +21°C° 0.1 mm 3 mps 748 mmHg 89%
19:00 +20°C° 0.1 mm 3 mps 748 mmHg 91%
20:00 +19°C° 0.1 mm 2 mps 748 mmHg 93%
21:00 +18°C° 0 mm 2 mps 748 mmHg 92%
22:00 +17°C° 0 mm 3 mps 749 mmHg 90%
23:00 +14°C° 0 mm 3 mps 749 mmHg 89%

7 August, Friday

Time Temperature Precipitation Wind Pressure Humidity
00:00 +14°C° 0 mm 3 mps 749 mmHg 89%
01:00 +13°C° 0 mm 3 mps 749 mmHg 89%
02:00 +13°C° 0 mm 3 mps 749 mmHg 90%
03:00 +13°C° 0 mm 3 mps 749 mmHg 90%
04:00 +12°C° 0 mm 3 mps 749 mmHg 90%
05:00 +13°C° 0 mm 2 mps 750 mmHg 91%
06:00 +14°C° 0 mm 3 mps 750 mmHg 88%
07:00 +17°C° 0 mm 3 mps 750 mmHg 84%
08:00 +18°C° 0 mm 3 mps 750 mmHg 81%
09:00 +20°C° 0 mm 3 mps 750 mmHg 76%
10:00 +21°C° 0 mm 3 mps 750 mmHg 70%
11:00 +24°C° 0 mm 3 mps 750 mmHg 64%
12:00 +23°C° 0 mm 4 mps 750 mmHg 62%
13:00 +23°C° 0 mm 4 mps 750 mmHg 61%
14:00 +23°C° 0 mm 4 mps 750 mmHg 60%
15:00 +23°C° 0 mm 4 mps 750 mmHg 63%
16:00 +24°C° 0 mm 3 mps 750 mmHg 66%
17:00 +22°C° 0 mm 3 mps 749 mmHg 70%
18:00 +21°C° 0 mm 3 mps 749 mmHg 75%
19:00 +19°C° 0 mm 3 mps 749 mmHg 79%
20:00 +17°C° 0 mm 2 mps 749 mmHg 84%
21:00 +17°C° 0 mm 2 mps 749 mmHg 86%
22:00 +16°C° 0 mm 2 mps 749 mmHg 87%
23:00 +15°C° 0 mm 2 mps 749 mmHg 89%

8 August, Saturday

Time Temperature Precipitation Wind Pressure Humidity
00:00 +15°C° 0 mm 2 mps 749 mmHg 90%
01:00 +14°C° 0 mm 2 mps 749 mmHg 91%
02:00 +14°C° 0 mm 2 mps 749 mmHg 91%
03:00 +14°C° 0 mm 2 mps 749 mmHg 92%
04:00 +14°C° 0 mm 2 mps 749 mmHg 92%
05:00 +14°C° 0 mm 2 mps 749 mmHg 92%
06:00 +14°C° 0 mm 3 mps 749 mmHg 87%
07:00 +17°C° 0 mm 3 mps 749 mmHg 83%
08:00 +19°C° 0 mm 3 mps 749 mmHg 78%
09:00 +20°C° 0 mm 3 mps 749 mmHg 71%
10:00 +21°C° 0 mm 4 mps 749 mmHg 65%
11:00 +23°C° 0 mm 4 mps 749 mmHg 59%
12:00 +23°C° 0 mm 4 mps 749 mmHg 58%
13:00 +23°C° 0 mm 4 mps 749 mmHg 57%
14:00 +25°C° 0 mm 4 mps 748 mmHg 56%
15:00 +24°C° 0 mm 3 mps 748 mmHg 61%
16:00 +24°C° 0 mm 3 mps 748 mmHg 65%
17:00 +22°C° 0 mm 3 mps 748 mmHg 70%
18:00 +21°C° 0 mm 3 mps 748 mmHg 74%
19:00 +19°C° 0 mm 2 mps 747 mmHg 79%
20:00 +17°C° 0 mm 2 mps 747 mmHg 83%
21:00 +16°C° 0 mm 2 mps 747 mmHg 86%
22:00 +16°C° 0 mm 2 mps 747 mmHg 89%
23:00 +15°C° 0 mm 2 mps 747 mmHg 91%
Show more